Crane, MT

11:09 PM MDT on August 25, 2016 (GMT -0600)
Sidney-Richland Municipal

Weather History for KSDY - February, 2012

Change the Weather History Date:

Thursday, February 2, 2012

  Actual Average Record
Temperature  
Mean Temperature 28 °F -  
Max Temperature 42 °F 24 °F 58 °F (1962)
Min Temperature 15 °F 3 °F -44 °F (1917)
Degree Days  
Heating Degree Days 36    
Moisture  
Dew Point 21 °F    
Average Humidity 79    
Maximum Humidity 100    
Minimum Humidity 49    
Precipitation  
Precipitation 0.00 in - - ()
Sea Level Pressure  
Sea Level Pressure 30.17 in    
Wind  
Wind Speed 3 mph (WNW)    
Max Wind Speed 14 mph    
Max Gust Speed 16 mph    
Visibility 10 miles    
Events      
Averages and records for this station are not official NWS values.
T = Trace of Precipitation, MM = Missing Value Source: NWS Daily Summary

Daily Weather History Graph

Daily Weather History Graph

Search for Another Location

Airport or City:

Trip Planner

Search our weather history database for the weather conditions in past years. The results will help you decide how hot, cold, wet, or windy it might be!

Date:

Astronomy

Feb. 02, 2012 Rise Set
Actual Time 7:22 AM MST 4:58 PM MST
Civil Twilight 6:49 AM MST 5:31 PM MST
Nautical Twilight 6:12 AM MST 6:08 PM MST
Astronomical Twilight 5:36 AM MST 6:44 PM MST
Moon 12:02 PM MST (2/2) 3:16 AM MST (2/2)
Length of Visible Light 10h 41m
Length of Day
9h 35m
Waxing Gibbous, 74% of the Moon is Illuminated
Feb 2
Waxing Gibbous
Feb 7
Full
Feb 14
Last Quarter
Feb 21
New
Feb 29
First Quarter

Hourly Weather History & Observations

Time (MST) Temp. Windchill Dew Point Humidity Pressure Visibility Wind Dir Wind Speed Gust Speed Precip Events Conditions
12:15 AM 21.2 °F - 15.8 °F 80% 30.07 in 10.0 mi Calm Calm - N/A   Clear
12:35 AM 19.4 °F - 17.6 °F 93% 30.07 in 10.0 mi Calm Calm - N/A   Clear
12:55 AM 19.4 °F 14.3 °F 17.6 °F 93% 30.07 in 10.0 mi South 3.5 mph - N/A   Clear
1:15 AM 19.4 °F - 17.6 °F 93% 30.07 in 10.0 mi Calm Calm - N/A   Partly Cloudy
1:35 AM 19.4 °F - 15.8 °F 86% 30.07 in 10.0 mi Calm Calm - N/A   Partly Cloudy
1:55 AM 17.6 °F - 14.0 °F 86% 30.07 in 10.0 mi Calm Calm - N/A   Scattered Clouds
2:15 AM 19.4 °F - 15.8 °F 86% 30.07 in 10.0 mi Calm Calm - N/A   Partly Cloudy
2:35 AM 17.6 °F - 12.2 °F 79% 30.07 in 10.0 mi Calm Calm - N/A   Clear
2:55 AM 17.6 °F - 15.8 °F 93% 30.08 in 10.0 mi Calm Calm - N/A   Clear
3:15 AM 17.6 °F - 12.2 °F 79% 30.08 in 10.0 mi Calm Calm - N/A   Clear
3:35 AM 17.6 °F - 17.6 °F 100% 30.08 in 10.0 mi Calm Calm - N/A   Clear
3:55 AM 15.8 °F - 10.4 °F 79% 30.08 in 10.0 mi Calm Calm - N/A   Clear
4:15 AM 17.6 °F 12.3 °F 14.0 °F 86% 30.08 in 10.0 mi SSW 3.5 mph - N/A   Clear
4:35 AM 15.8 °F - 12.2 °F 86% 30.09 in 10.0 mi Calm Calm - N/A   Clear
4:56 AM 15.8 °F 8.6 °F 15.8 °F 100% 30.09 in 10.0 mi South 4.6 mph - N/A   Clear
5:15 AM 15.8 °F - 15.8 °F 100% 30.10 in 10.0 mi Calm Calm - N/A   Clear
5:35 AM 15.8 °F - 12.2 °F 86% 30.10 in 10.0 mi Calm Calm - N/A   Clear
5:55 AM 15.8 °F - 14.0 °F 93% 30.11 in 10.0 mi Calm Calm - N/A   Clear
6:15 AM 17.6 °F - 15.8 °F 93% 30.11 in 10.0 mi Calm Calm - N/A   Partly Cloudy
6:35 AM 17.6 °F - 15.8 °F 93% 30.11 in 10.0 mi Calm Calm - N/A   Scattered Clouds
7:15 AM 19.4 °F 11.5 °F 17.6 °F 93% 30.12 in 10.0 mi South 5.8 mph - N/A   Overcast
7:35 AM 21.2 °F 14.9 °F 17.6 °F 86% 30.12 in 10.0 mi South 4.6 mph - N/A   Overcast
7:55 AM 21.2 °F - 19.4 °F 93% 30.13 in 10.0 mi Calm Calm - N/A   Overcast
8:15 AM 21.2 °F - 19.4 °F 93% 30.14 in 10.0 mi Calm Calm - N/A   Overcast
8:35 AM 23.0 °F 18.4 °F 21.2 °F 93% 30.15 in 10.0 mi SSW 3.5 mph - N/A   Mostly Cloudy
8:55 AM 24.8 °F 19.1 °F 21.2 °F 86% 30.15 in 10.0 mi South 4.6 mph - N/A   Mostly Cloudy
9:15 AM 26.6 °F 20.0 °F 23.0 °F 86% 30.16 in 10.0 mi SSW 5.8 mph - N/A   Mostly Cloudy
9:35 AM 26.6 °F 20.0 °F 24.8 °F 93% 30.17 in 10.0 mi SSW 5.8 mph - N/A   Overcast
9:55 AM 30.2 °F 24.3 °F 24.8 °F 80% 30.17 in 10.0 mi SSW 5.8 mph - N/A   Scattered Clouds
10:15 AM 30.2 °F 26.7 °F 26.6 °F 86% 30.17 in 10.0 mi South 3.5 mph - N/A   Partly Cloudy
10:55 AM 33.8 °F - 28.4 °F 81% 30.19 in 10.0 mi Calm Calm - N/A   Overcast
11:15 AM 37.4 °F 31.4 °F 28.4 °F 70% 30.19 in 10.0 mi NNW 8.1 mph - N/A   Overcast
11:35 AM 39.2 °F 31.6 °F 24.8 °F 56% 30.19 in 10.0 mi NW 12.7 mph - N/A   Overcast
11:55 AM 39.2 °F 32.5 °F 26.6 °F 61% 30.20 in 10.0 mi NW 10.4 mph - N/A   Overcast
12:15 PM 41.0 °F 34.3 °F 26.6 °F 57% 30.20 in 10.0 mi NNW 11.5 mph - N/A   Scattered Clouds
12:35 PM 42.8 °F 36.6 °F 24.8 °F 49% 30.20 in 10.0 mi NNW 11.5 mph - N/A   Mostly Cloudy
12:55 PM 42.8 °F 36.6 °F 26.6 °F 53% 30.20 in 10.0 mi North 11.5 mph - N/A   Overcast
1:15 PM 42.8 °F 37.5 °F 26.6 °F 53% 30.20 in 10.0 mi North 9.2 mph - N/A   Overcast
1:35 PM 42.8 °F 37.0 °F 26.6 °F 53% 30.21 in 10.0 mi NNW 10.4 mph 16.1 mph N/A   Mostly Cloudy
1:55 PM 42.8 °F 36.2 °F 26.6 °F 53% 30.21 in 10.0 mi NW 12.7 mph - N/A   Mostly Cloudy
2:15 PM 41.0 °F 33.9 °F 26.6 °F 57% 30.22 in 10.0 mi NW 12.7 mph - N/A   Overcast
2:35 PM 39.2 °F 31.2 °F 26.6 °F 61% 30.22 in 10.0 mi NNW 13.8 mph - N/A   Overcast
2:55 PM 39.2 °F 31.2 °F 26.6 °F 61% 30.23 in 10.0 mi NW 13.8 mph - N/A   Overcast
3:15 PM 39.2 °F 32.5 °F 26.6 °F 61% 30.23 in 10.0 mi NW 10.4 mph - N/A   Mostly Cloudy
3:35 PM 39.2 °F 32.5 °F 26.6 °F 61% 30.24 in 10.0 mi NW 10.4 mph - N/A   Scattered Clouds
3:55 PM 39.2 °F 34.2 °F 26.6 °F 61% 30.25 in 10.0 mi NW 6.9 mph - N/A   Clear
4:15 PM 37.4 °F 31.4 °F 26.6 °F 65% 30.26 in 10.0 mi NW 8.1 mph - N/A   Clear
4:35 PM 35.6 °F 29.2 °F 24.8 °F 65% 30.26 in 10.0 mi NW 8.1 mph - N/A   Clear
4:55 PM 35.6 °F 29.2 °F 24.8 °F 65% 30.27 in 10.0 mi NW 8.1 mph - N/A   Clear
5:15 PM 30.2 °F 22.6 °F 23.0 °F 75% 30.28 in 10.0 mi WNW 8.1 mph - N/A   Clear
5:35 PM 30.2 °F 25.4 °F 24.8 °F 80% 30.30 in 10.0 mi NNW 4.6 mph - N/A   Clear
6:15 PM 30.2 °F 23.4 °F 24.8 °F 80% 30.32 in 10.0 mi North 6.9 mph - N/A   Clear
6:55 PM 26.6 °F 19.1 °F 23.0 °F 86% 30.34 in 10.0 mi NNW 6.9 mph - N/A   Clear
7:15 PM 26.6 °F 19.1 °F 23.0 °F 86% 30.35 in 10.0 mi NW 6.9 mph - N/A   Clear
7:35 PM 24.8 °F 16.1 °F 21.2 °F 86% 30.35 in 10.0 mi NW 8.1 mph - N/A   Clear
7:55 PM 24.8 °F 16.9 °F 21.2 °F 86% 30.36 in 10.0 mi NW 6.9 mph - N/A   Clear
8:15 PM 21.2 °F 13.6 °F 19.4 °F 93% 30.37 in 10.0 mi WNW 5.8 mph - N/A   Clear
8:35 PM 21.2 °F 16.4 °F 21.2 °F 100% 30.38 in 10.0 mi WNW 3.5 mph - N/A   Clear
8:55 PM 23.0 °F 15.8 °F 19.4 °F 86% 30.38 in 10.0 mi NW 5.8 mph - N/A   Clear
9:15 PM 21.2 °F 14.9 °F 19.4 °F 93% 30.38 in 10.0 mi NW 4.6 mph - N/A   Clear
9:35 PM 21.2 °F 11.7 °F 21.2 °F 100% 30.39 in 10.0 mi WNW 8.1 mph - N/A   Clear
9:55 PM 21.2 °F 11.7 °F 19.4 °F 93% 30.39 in 10.0 mi WNW 8.1 mph - N/A   Clear
10:15 PM 21.2 °F 13.6 °F 19.4 °F 93% 30.39 in 10.0 mi WNW 5.8 mph - N/A   Clear
10:35 PM 21.2 °F 10.1 °F 19.4 °F 93% 30.39 in 10.0 mi WNW 10.4 mph - N/A   Clear
10:55 PM 21.2 °F 13.6 °F 17.6 °F 86% 30.40 in 10.0 mi WNW 5.8 mph - N/A   Scattered Clouds
11:15 PM 23.0 °F 14.7 °F 21.2 °F 93% 30.41 in 10.0 mi WNW 6.9 mph - N/A   Overcast
11:55 PM 24.8 °F - 21.2 °F 86% 30.43 in 10.0 mi Calm Calm - N/A   Overcast